400  
ASUS43 KEAX 211515  
RWREAX  
 
WEATHER ROUNDUP FOR EASTERN KANSAS AND NORTHWEST MISSOURI  
NATIONAL WEATHER SERVICE KANSAS CITY/PLEASANT HILL MO  
1000 AM CDT SAT MAY 21 2022  
 
KSZ040-057-103>105-MOZ028-029-037-043-211600-   
..KANSAS CITY METROPOLITAN AREA
 
 
 
CITY SKY/WX TMP DP RH WIND PRES REMARKS
 
K.C. INTL CLOUDY 53 47 79 N10 30.07F  
K.C. DOWNTOWN CLOUDY 54 46 74 N15 30.06F  
LEES SUMMIT CLOUDY 54 47 77 N13G21 30.05S  
OLATHE - IXD CLOUDY 52 45 77 N17G28 30.07R  
OLATHE - OJC CLOUDY 54 45 71 N17G23 30.05R  
LAWRENCE CLOUDY 54 46 74 N12 30.09S  
 

 
 
MOZ001>008-011>017-020>025-030>033-038>040-044>046-053-054-211600-   
..NORTHERN AND CENTRAL MISSOURI
 
 
 
CITY SKY/WX TMP DP RH WIND PRES REMARKS
 
ST. JOSEPH CLOUDY 51 43 74 N15 30.11F  
HARRISONVILLE CLOUDY 55 46 71 N12 30.06S  
WHITEMAN AFB CLOUDY 53 49 84 N10 29.98F  
CLINTON CLOUDY 54 50 87 N13G18 29.99F  
SEDALIA CLOUDY 53 50 89 NE9 30.02R  
MARSHALL CLOUDY 52 48 87 N7 30.05R  
CHILLICOTHE N/A 52 46 80 N6 30.09R  
MOBERLY LGT RAIN 52 46 82 N6 30.07R  
KIRKSVILLE CLOUDY 50 45 83 N12 30.08R  
 

 
 
MOZ041-047>049-056>058-063>065-088>090-097-211600-   
..EASTERN AND SOUTHERN MISSOURI
 
 
 
CITY SKY/WX TMP DP RH WIND PRES REMARKS
 
ST. LOUIS INTL TSTM 57 55 93 NW18G31 30.04R FOG  
SPIRIT OF STL TSTM 55 54 96 N15G23 30.02R FOG  
COLUMBIA LGT RAIN 52 48 86 NE14G22 30.00F  
JEFFERSON CITY RAIN 55 50 83 NE5 30.02R  
MEXICO TSTM 50 48 93 NW9 30.08R  
HANNIBAL RAIN 52 50 93 W6 30.10R  
ROLLA HVY RAIN 53 52 96 N5 30.06R FOG  
LEBANON LGT RAIN 54 52 94 NE16G23 29.93F  
SPRINGFIELD LGT RAIN 55 54 96 SE16 29.91R  
BRANSON CLOUDY 59 59 100 CALM 29.96R  
JOPLIN CLOUDY 55 52 89 N8 29.99R  
WEST PLAINS TSTM 59 58 96 NE8 29.99F  
SIKESTON PTSUNNY 81 72 74 S14G21 29.95R  
 

 
 
IAZ060-094-KSZ022-034>040-054-083-096-NEZ052-066-093-211600-    
..KANSAS...SOUTHEAST NEBRASKA AND IOWA
 
 
 
CITY SKY/WX TMP DP RH WIND PRES REMARKS
 
TOPEKA CLOUDY 55 40 56 NW15 30.10S  
MANHATTAN CLOUDY 52 39 61 N10G18 30.15R  
EMPORIA PTSUNNY 57 42 57 N14G28 30.08R  
OTTAWA FAIR 57 46 67 N16G26 30.05R  
CHANUTE CLOUDY 58 46 64 N14G23 30.03R  
SALINA CLOUDY 52 33 48 N18G29 30.17R  
WICHITA CLOUDY 55 41 59 N18G30 30.10R  
OMAHA CLOUDY 50 39 66 NW12 30.18R  
LINCOLN CLOUDY 49 33 54 N14 30.20R  
FALLS CITY PTSUNNY 51 39 63 N13 30.14R  
LAMONI PTSUNNY 48 38 68 N14 30.10S  
DES MOINES CLOUDY 48 36 63 NW9 30.12R  
 

 
 
 
 
CLICK HERE TO GO TO PREVIOUS BULLETINS.

The Nexlab MO Page
The Nexlab KS Page Main Text Page